Regional Weather Roundup
Issued by NWS

Home | Current Version | Previous Version | Graphics & Text | Print | Product List | Glossary Off
Versions: 1 2 3 4 5 6 7 8 9 10 11 12 13 14 15 16 17 18 19 20 21 22 23 24 25 26 27 28 29 30 31 32 33 34 35 36 37 38 39 40 41 42 43 44 45 46 47 48 49 50

000
ASUS43 KFSD 201102
RWRSD

WEATHER ROUNDUP FOR SOUTH DAKOTA
NATIONAL WEATHER SERVICE SIOUX FALLS SD
600 AM CDT SUN MAY 20 2018

NOTE: "FAIR" INDICATES FEW OR NO CLOUDS BELOW 12,000 FEET WITH NO
SIGNIFICANT WEATHER AND/OR OBSTRUCTIONS TO VISIBILITY.


SDZ001>005-009-010-012>017-201200-
NORTHWEST AND NORTH CENTRAL SOUTH DAKOTA

CITY           SKY/WX    TMP DP  RH WIND       PRES   REMARKS
BUFFALO          N/A     41  32  70 S5        30.18F
FAITH            N/A     41  36  82 CALM      30.25S
MOBRIDGE       PTCLDY    43  38  82 N7        30.23S
$$

SDZ012>016-024>037-041>051-057-063-072>074-201200-
SOUTHWEST AND SOUTH CENTRAL SOUTH DAKOTA

CITY           SKY/WX    TMP DP  RH WIND       PRES   REMARKS
RAPID CTY ARPT PTCLDY    39  33  79 CALM      30.25S
PIERRE         PTCLDY    42  38  85 NE8       30.21R
CUSTER         MOCLDY    33  29  85 NE3       30.23F
ELLSWORTH AFB  PTCLDY    43  35  73 CALM      30.24S
PHILIP         MOCLDY    39  38  96 N3        30.23S
PINE RIDGE     CLEAR     35  35 100 CALM      30.23F
SPEARFISH      FAIR      37  36  93 S3        30.25S
WINNER         FAIR      41  34  76 N6        30.19S
$$

SDZ004>011-016>023-039-040-201200-
NORTHEAST SOUTH DAKOTA

CITY           SKY/WX    TMP DP  RH WIND       PRES   REMARKS
ABERDEEN       MOCLDY    38  33  82 N5        30.24S
WATERTOWN      PTCLDY    38  36  92 NE7       30.21R
BROOKINGS      CLEAR     46  39  76 NE10      30.18S
SISSETON         N/A     37  33  85 N3        30.24R
$$

SDZ017-020-022-023-036>040-048>070-201200-
SOUTHEAST SOUTH DAKOTA

CITY           SKY/WX    TMP DP  RH WIND       PRES   REMARKS
SIOUX FALLS    CLOUDY    49  41  74 E14       30.16R
HURON          CLEAR     39  34  82 NE3       30.21R
CHAMBERLAIN    CLEAR     48  38  70 NE7       30.19S
MITCHELL       PTCLDY    48  41  76 N8        30.19R
YANKTON        CLOUDY    51  46  83 NE10      30.15R
$$

ABBREVIATIONS USED IN REMARKS
   TC - TEMPERATURE IN CELSIUS
  WCI - WIND CHILL INDEX
   HX - HEAT INDEX
  VSB - VISIBILITY





USA.gov is the U.S. government's official web portal to all federal, state and local government web resources and services.